This is the latest recevied weather packets stored in our database for station/object JH5HTX-13. If no packets are shown the sender has not sent any weather packets the latest 10 day(s).
| Time | Temp. | Humidity | Pressure | Rain* | Wind** | Luminosity | Snow |
|---|---|---|---|---|---|---|---|
| 1777476548 | 14.44° C | 87% | 1018.5 hPa | 0 mm | - | - | - |
| 1777475648 | 14.44° C | 85% | 1018.3 hPa | 0 mm | - | - | - |
| 1777474748 | 15° C | 85% | 1018.1 hPa | 0 mm | - | - | - |
| 1777473848 | 15° C | 85% | 1018 hPa | 0 mm | - | - | - |
| 1777472948 | 15° C | 88% | 1017.8 hPa | 0 mm | - | - | - |
| 1777472048 | 15° C | 89% | 1017.7 hPa | 0 mm | - | - | - |
| 1777471148 | 15° C | 90% | 1017.6 hPa | 0 mm | - | - | - |
| 1777470247 | 15.56° C | 89% | 1017.6 hPa | 0 mm | - | - | - |
| 1777469347 | 15° C | 88% | 1017.6 hPa | 0 mm | - | - | - |
| 1777468447 | 15.56° C | 89% | 1017.5 hPa | 0 mm | - | - | - |
| 1777467547 | 15.56° C | 87% | 1017.5 hPa | 0 mm | - | - | - |
| 1777466647 | 15.56° C | 86% | 1017.7 hPa | 0 mm | - | - | - |
| 1777465747 | 15.56° C | 83% | 1017.9 hPa | 0 mm | - | - | - |
| 1777464847 | 15.56° C | 82% | 1017.9 hPa | 0 mm | - | - | - |
| 1777463947 | 16.11° C | 81% | 1017.8 hPa | 0 mm | - | - | - |
| 1777463047 | 16.11° C | 80% | 1017.5 hPa | 0 mm | - | - | - |
| 1777462146 | 16.11° C | 79% | 1017.5 hPa | 0 mm | - | - | - |
| 1777461246 | 16.67° C | 78% | 1017.4 hPa | 0 mm | - | - | - |
| 1777460346 | 16.67° C | 77% | 1017.2 hPa | 0 mm | - | - | - |
| 1777459446 | 16.67° C | 77% | 1017.1 hPa | 0 mm | - | - | - |
| 1777458546 | 17.22° C | 76% | 1016.8 hPa | 0 mm | - | - | - |
| 1777457646 | 17.22° C | 75% | 1016.7 hPa | 0 mm | - | - | - |
| 1777456746 | 17.22° C | 74% | 1016.7 hPa | 0 mm | - | - | - |
| 1777455846 | 17.22° C | 74% | 1016.7 hPa | 0 mm | - | - | - |
| 1777454946 | 17.22° C | 74% | 1016.4 hPa | 0 mm | - | - | - |
* Rain latest hour (hover to see other rain measurements)
** Current wind speed in m/s (hover to see current wind gust speed)